www.cux-wetter.de
Wetterdaten: Mittwoch, 15.07.2015
Datum Zeit Temp. A. Feuchte A. Luftdruck Regen Wind Richtung Richtung Sonnenschein Solar Taupunkt Windchill Windben
15.07.2015 00:00 16,1 C 82 % 1016,3 hPa 0,0 l/m 5,0 km/h (1 Bft) W 273 0 min 0 W/m 13,0 C 16,1 C 12,9 km/h (3 Bft)
15.07.2015 00:05 16,1 C 83 % 1016,4 hPa 0,0 l/m 7,6 km/h (2 Bft) W 273 0 min 0 W/m 13,2 C 15,5 C 14,5 km/h (3 Bft)
15.07.2015 00:10 16,1 C 82 % 1016,3 hPa 0,0 l/m 5,3 km/h (1 Bft) W-SW 250 0 min 0 W/m 13,0 C 16,1 C 11,3 km/h (2 Bft)
15.07.2015 00:15 16,2 C 83 % 1016,4 hPa 0,0 l/m 8,0 km/h (2 Bft) W-NW 300 0 min 0 W/m 13,3 C 15,4 C 17,7 km/h (3 Bft)
15.07.2015 00:20 16,3 C 82 % 1016,4 hPa 0,0 l/m 5,2 km/h (1 Bft) W-SW 252 0 min 0 W/m 13,2 C 16,3 C 16,1 km/h (3 Bft)
15.07.2015 00:25 16,4 C 81 % 1016,4 hPa 0,0 l/m 7,2 km/h (2 Bft) NW 312 0 min 0 W/m 13,1 C 16,0 C 14,5 km/h (3 Bft)
15.07.2015 00:30 16,4 C 82 % 1016,4 hPa 0,0 l/m 5,0 km/h (1 Bft) NW 306 0 min 0 W/m 13,3 C 16,4 C 12,9 km/h (3 Bft)
15.07.2015 00:35 16,4 C 81 % 1016,4 hPa 0,0 l/m 7,7 km/h (2 Bft) W-NW 298 0 min 0 W/m 13,1 C 15,7 C 17,7 km/h (3 Bft)
15.07.2015 00:40 16,4 C 82 % 1016,4 hPa 0,0 l/m 6,2 km/h (2 Bft) W 281 0 min 0 W/m 13,3 C 16,4 C 14,5 km/h (3 Bft)
15.07.2015 00:45 16,4 C 82 % 1016,5 hPa 0,0 l/m 4,7 km/h (1 Bft) W-NW 292 0 min 0 W/m 13,3 C 16,4 C 14,5 km/h (3 Bft)
15.07.2015 00:50 16,5 C 82 % 1016,5 hPa 0,0 l/m 4,3 km/h (1 Bft) W-NW 296 0 min 0 W/m 13,4 C 16,5 C 12,9 km/h (3 Bft)
15.07.2015 00:55 16,5 C 82 % 1016,6 hPa 0,0 l/m 5,3 km/h (1 Bft) W-SW 258 0 min 0 W/m 13,4 C 16,5 C 12,9 km/h (3 Bft)
15.07.2015 01:00 16,5 C 82 % 1016,6 hPa 0,0 l/m 6,5 km/h (2 Bft) W-NW 290 0 min 0 W/m 13,4 C 16,5 C 12,9 km/h (3 Bft)
15.07.2015 01:05 16,4 C 82 % 1016,7 hPa 0,0 l/m 7,3 km/h (2 Bft) NW 321 0 min 0 W/m 13,3 C 15,9 C 16,1 km/h (3 Bft)
15.07.2015 01:10 16,5 C 82 % 1016,6 hPa 0,0 l/m 5,5 km/h (2 Bft) W-NW 282 0 min 0 W/m 13,4 C 16,5 C 12,9 km/h (3 Bft)
15.07.2015 01:15 16,6 C 83 % 1016,6 hPa 0,0 l/m 8,3 km/h (2 Bft) W-NW 285 0 min 0 W/m 13,7 C 15,6 C 16,1 km/h (3 Bft)
15.07.2015 01:20 16,6 C 82 % 1016,7 hPa 0,0 l/m 6,9 km/h (2 Bft) NW 325 0 min 0 W/m 13,5 C 16,3 C 14,5 km/h (3 Bft)
15.07.2015 01:25 16,6 C 81 % 1016,6 hPa 0,0 l/m 7,4 km/h (2 Bft) W 267 0 min 0 W/m 13,3 C 16,1 C 17,7 km/h (3 Bft)
15.07.2015 01:30 16,6 C 80 % 1016,6 hPa 0,0 l/m 7,5 km/h (2 Bft) N-NW 340 0 min 0 W/m 13,1 C 16,0 C 17,7 km/h (3 Bft)
15.07.2015 01:35 16,5 C 81 % 1016,7 hPa 0,0 l/m 6,4 km/h (2 Bft) W 276 0 min 0 W/m 13,2 C 16,5 C 17,7 km/h (3 Bft)
15.07.2015 01:40 16,5 C 82 % 1016,8 hPa 0,0 l/m 7,9 km/h (2 Bft) NW 320 0 min 0 W/m 13,4 C 15,7 C 17,7 km/h (3 Bft)
15.07.2015 01:45 16,5 C 81 % 1016,8 hPa 0,0 l/m 7,4 km/h (2 Bft) W-SW 245 0 min 0 W/m 13,2 C 16,0 C 17,7 km/h (3 Bft)
15.07.2015 01:50 16,5 C 80 % 1016,8 hPa 0,0 l/m 7,0 km/h (2 Bft) W 273 0 min 0 W/m 13,0 C 16,2 C 16,1 km/h (3 Bft)
15.07.2015 01:55 16,5 C 79 % 1016,8 hPa 0,0 l/m 7,6 km/h (2 Bft) W-NW 294 0 min 0 W/m 12,8 C 15,9 C 17,7 km/h (3 Bft)
15.07.2015 02:00 16,6 C 80 % 1016,8 hPa 0,0 l/m 9,0 km/h (2 Bft) N-NW 344 0 min 0 W/m 13,1 C 15,3 C 17,7 km/h (3 Bft)
15.07.2015 02:05 16,5 C 81 % 1016,8 hPa 0,0 l/m 6,3 km/h (2 Bft) W-SW 242 0 min 0 W/m 13,2 C 16,5 C 16,1 km/h (3 Bft)
15.07.2015 02:10 16,6 C 80 % 1016,8 hPa 0,0 l/m 7,4 km/h (2 Bft) W-NW 298 0 min 0 W/m 13,1 C 16,1 C 19,3 km/h (3 Bft)
15.07.2015 02:15 16,6 C 79 % 1016,8 hPa 0,0 l/m 8,5 km/h (2 Bft) W-NW 297 0 min 0 W/m 12,9 C 15,5 C 17,7 km/h (3 Bft)
15.07.2015 02:20 16,5 C 80 % 1016,9 hPa 0,0 l/m 5,1 km/h (1 Bft) W 273 0 min 0 W/m 13,0 C 16,5 C 12,9 km/h (3 Bft)
15.07.2015 02:25 16,5 C 79 % 1016,9 hPa 0,0 l/m 6,7 km/h (2 Bft) N-NW 333 0 min 0 W/m 12,8 C 16,4 C 16,1 km/h (3 Bft)
15.07.2015 02:30 16,5 C 80 % 1016,9 hPa 0,0 l/m 6,6 km/h (2 Bft) NW 317 0 min 0 W/m 13,0 C 16,4 C 16,1 km/h (3 Bft)
15.07.2015 02:35 16,6 C 80 % 1016,9 hPa 0,0 l/m 8,3 km/h (2 Bft) W-NW 300 0 min 0 W/m 13,1 C 15,6 C 17,7 km/h (3 Bft)
15.07.2015 02:40 16,6 C 79 % 1016,9 hPa 0,0 l/m 8,7 km/h (2 Bft) W-SW 253 0 min 0 W/m 12,9 C 15,5 C 19,3 km/h (3 Bft)
15.07.2015 02:45 16,6 C 80 % 1016,9 hPa 0,0 l/m 6,0 km/h (2 Bft) W 261 0 min 0 W/m 13,1 C 16,6 C 14,5 km/h (3 Bft)
15.07.2015 02:50 16,6 C 80 % 1016,9 hPa 0,0 l/m 7,1 km/h (2 Bft) N-NW 330 0 min 0 W/m 13,1 C 16,2 C 14,5 km/h (3 Bft)
15.07.2015 02:55 16,5 C 81 % 1016,9 hPa 0,0 l/m 7,5 km/h (2 Bft) W-NW 286 0 min 0 W/m 13,2 C 15,9 C 16,1 km/h (3 Bft)
15.07.2015 03:00 16,4 C 85 % 1016,9 hPa 0,0 l/m 5,6 km/h (2 Bft) N-NW 336 0 min 0 W/m 13,9 C 16,4 C 14,5 km/h (3 Bft)
15.07.2015 03:05 16,2 C 85 % 1016,9 hPa 0,0 l/m 8,8 km/h (2 Bft) W 278 0 min 0 W/m 13,7 C 15,0 C 19,3 km/h (3 Bft)
15.07.2015 03:10 16,1 C 85 % 1017,0 hPa 0,0 l/m 8,1 km/h (2 Bft) NW 305 0 min 0 W/m 13,6 C 15,2 C 17,7 km/h (3 Bft)
15.07.2015 03:15 16,1 C 83 % 1017,0 hPa 0,0 l/m 10,1 km/h (2 Bft) N 360 0 min 0 W/m 13,2 C 14,3 C 19,3 km/h (3 Bft)
15.07.2015 03:20 16,0 C 83 % 1017,0 hPa 0,0 l/m 8,2 km/h (2 Bft) W-SW 244 0 min 0 W/m 13,1 C 15,1 C 17,7 km/h (3 Bft)
15.07.2015 03:25 16,1 C 82 % 1017,1 hPa 0,0 l/m 7,7 km/h (2 Bft) W 280 0 min 0 W/m 13,0 C 15,4 C 17,7 km/h (3 Bft)
15.07.2015 03:30 16,1 C 83 % 1017,1 hPa 0,0 l/m 8,8 km/h (2 Bft) NW 316 0 min 0 W/m 13,2 C 14,9 C 20,9 km/h (4 Bft)
15.07.2015 03:35 16,1 C 82 % 1017,1 hPa 0,0 l/m 10,0 km/h (2 Bft) W-NW 299 0 min 0 W/m 13,0 C 14,3 C 19,3 km/h (3 Bft)
15.07.2015 03:40 16,0 C 82 % 1017,1 hPa 0,0 l/m 9,3 km/h (2 Bft) W 274 0 min 0 W/m 12,9 C 14,5 C 20,9 km/h (4 Bft)
15.07.2015 03:45 16,0 C 81 % 1017,2 hPa 0,0 l/m 8,8 km/h (2 Bft) N 349 0 min 0 W/m 12,7 C 14,8 C 24,1 km/h (4 Bft)
15.07.2015 03:50 16,0 C 81 % 1017,2 hPa 0,0 l/m 8,3 km/h (2 Bft) W-NW 302 0 min 0 W/m 12,7 C 15,0 C 17,7 km/h (3 Bft)
15.07.2015 03:55 16,0 C 81 % 1017,1 hPa 0,0 l/m 8,7 km/h (2 Bft) W 265 0 min 0 W/m 12,7 C 14,8 C 20,9 km/h (4 Bft)
15.07.2015 04:00 15,9 C 81 % 1017,2 hPa 0,0 l/m 7,0 km/h (2 Bft) W 260 0 min 0 W/m 12,6 C 15,6 C 19,3 km/h (3 Bft)
15.07.2015 04:05 16,0 C 80 % 1017,2 hPa 0,0 l/m 8,4 km/h (2 Bft) N 9 0 min 0 W/m 12,5 C 15,0 C 20,9 km/h (4 Bft)
15.07.2015 04:10 16,1 C 80 % 1017,2 hPa 0,0 l/m 8,1 km/h (2 Bft) N-NW 333 0 min 0 W/m 12,6 C 15,2 C 22,5 km/h (4 Bft)
15.07.2015 04:15 16,0 C 81 % 1017,1 hPa 0,0 l/m 8,7 km/h (2 Bft) W 269 0 min 0 W/m 12,7 C 14,8 C 27,4 km/h (5 Bft)
15.07.2015 04:20 15,9 C 80 % 1017,1 hPa 0,0 l/m 10,3 km/h (2 Bft) NW 309 0 min 0 W/m 12,5 C 14,0 C 24,1 km/h (4 Bft)
15.07.2015 04:25 15,9 C 80 % 1017,2 hPa 0,0 l/m 12,5 km/h (2 Bft) NW 307 0 min 0 W/m 12,5 C 13,1 C 20,9 km/h (4 Bft)
15.07.2015 04:30 15,9 C 80 % 1017,3 hPa 0,0 l/m 11,0 km/h (2 Bft) NW 324 0 min 0 W/m 12,5 C 13,7 C 19,3 km/h (3 Bft)
15.07.2015 04:35 15,9 C 80 % 1017,3 hPa 0,0 l/m 7,6 km/h (2 Bft) NW 314 0 min 0 W/m 12,5 C 15,3 C 19,3 km/h (3 Bft)
15.07.2015 04:40 15,8 C 81 % 1017,3 hPa 0,0 l/m 8,2 km/h (2 Bft) NW 313 0 min 0 W/m 12,5 C 14,8 C 17,7 km/h (3 Bft)
15.07.2015 04:45 15,8 C 80 % 1017,3 hPa 0,0 l/m 7,1 km/h (2 Bft) W 266 0 min 0 W/m 12,4 C 15,4 C 16,1 km/h (3 Bft)
15.07.2015 04:50 15,8 C 80 % 1017,3 hPa 0,0 l/m 8,4 km/h (2 Bft) N-NW 330 0 min 0 W/m 12,4 C 14,7 C 16,1 km/h (3 Bft)
15.07.2015 04:55 15,8 C 80 % 1017,2 hPa 0,0 l/m 8,9 km/h (2 Bft) N 360 0 min 0 W/m 12,4 C 14,5 C 16,1 km/h (3 Bft)
15.07.2015 05:00 15,8 C 80 % 1017,2 hPa 0,0 l/m 8,3 km/h (2 Bft) N 360 0 min 0 W/m 12,4 C 14,8 C 16,1 km/h (3 Bft)
15.07.2015 05:05 15,7 C 79 % 1017,3 hPa 0,0 l/m 9,0 km/h (2 Bft) W-NW 295 0 min 0 W/m 12,1 C 14,3 C 17,7 km/h (3 Bft)
15.07.2015 05:10 15,6 C 79 % 1017,3 hPa 0,0 l/m 6,6 km/h (2 Bft) NW 309 0 min 0 W/m 12,0 C 15,5 C 14,5 km/h (3 Bft)
15.07.2015 05:15 15,6 C 80 % 1017,3 hPa 0,0 l/m 5,9 km/h (2 Bft) NW 309 0 min 0 W/m 12,2 C 15,6 C 14,5 km/h (3 Bft)
15.07.2015 05:20 15,6 C 81 % 1017,4 hPa 0,0 l/m 4,6 km/h (1 Bft) N-NW 339 0 min 0 W/m 12,3 C 15,6 C 12,9 km/h (3 Bft)
15.07.2015 05:25 15,6 C 82 % 1017,3 hPa 0,0 l/m 5,0 km/h (1 Bft) NW 313 0 min 5 W/m 12,5 C 15,6 C 12,9 km/h (3 Bft)
15.07.2015 05:30 15,7 C 82 % 1017,3 hPa 0,0 l/m 5,8 km/h (2 Bft) N-NW 331 0 min 9 W/m 12,6 C 15,7 C 12,9 km/h (3 Bft)
15.07.2015 05:35 15,6 C 81 % 1017,3 hPa 0,0 l/m 5,5 km/h (2 Bft) W-NW 298 0 min 12 W/m 12,3 C 15,6 C 11,3 km/h (2 Bft)
15.07.2015 05:40 15,5 C 81 % 1017,3 hPa 0,0 l/m 5,6 km/h (2 Bft) W-NW 296 0 min 12 W/m 12,3 C 15,5 C 11,3 km/h (2 Bft)
15.07.2015 05:45 15,4 C 81 % 1017,4 hPa 0,0 l/m 6,4 km/h (2 Bft) N-NW 329 0 min 11 W/m 12,2 C 15,4 C 12,9 km/h (3 Bft)
15.07.2015 05:50 15,3 C 80 % 1017,4 hPa 0,0 l/m 5,9 km/h (2 Bft) NW 313 0 min 12 W/m 11,9 C 15,3 C 12,9 km/h (3 Bft)
15.07.2015 05:55 15,3 C 81 % 1017,4 hPa 0,0 l/m 6,1 km/h (2 Bft) W-NW 284 0 min 12 W/m 12,1 C 15,3 C 14,5 km/h (3 Bft)
15.07.2015 06:00 15,2 C 82 % 1017,4 hPa 0,0 l/m 5,6 km/h (2 Bft) NW 318 0 min 14 W/m 12,1 C 15,2 C 12,9 km/h (3 Bft)
15.07.2015 06:05 15,2 C 82 % 1017,3 hPa 0,0 l/m 4,8 km/h (1 Bft) NW 323 0 min 16 W/m 12,1 C 15,2 C 9,7 km/h (2 Bft)
15.07.2015 06:10 15,2 C 84 % 1017,4 hPa 0,0 l/m 5,2 km/h (1 Bft) N-NO 15 0 min 28 W/m 12,5 C 15,2 C 16,1 km/h (3 Bft)
15.07.2015 06:15 15,3 C 84 % 1017,4 hPa 0,0 l/m 6,5 km/h (2 Bft) N-NW 338 5 min 77 W/m 12,6 C 15,3 C 14,5 km/h (3 Bft)
15.07.2015 06:20 15,6 C 82 % 1017,3 hPa 0,0 l/m 6,5 km/h (2 Bft) N-NW 335 5 min 86 W/m 12,5 C 15,6 C 14,5 km/h (3 Bft)
15.07.2015 06:25 15,8 C 81 % 1017,4 hPa 0,0 l/m 6,7 km/h (2 Bft) N 355 0 min 42 W/m 12,5 C 15,6 C 14,5 km/h (3 Bft)
15.07.2015 06:30 15,7 C 80 % 1017,4 hPa 0,0 l/m 8,1 km/h (2 Bft) N 355 0 min 28 W/m 12,3 C 14,8 C 14,5 km/h (3 Bft)
15.07.2015 06:35 15,6 C 81 % 1017,3 hPa 0,0 l/m 6,9 km/h (2 Bft) N-NW 341 0 min 32 W/m 12,3 C 15,3 C 12,9 km/h (3 Bft)
15.07.2015 06:40 15,5 C 80 % 1017,4 hPa 0,0 l/m 7,0 km/h (2 Bft) N-NW 341 0 min 26 W/m 12,1 C 15,2 C 12,9 km/h (3 Bft)
15.07.2015 06:45 15,4 C 80 % 1017,4 hPa 0,0 l/m 5,9 km/h (2 Bft) N-NW 341 0 min 26 W/m 12,0 C 15,4 C 12,9 km/h (3 Bft)
15.07.2015 06:50 15,3 C 80 % 1017,5 hPa 0,0 l/m 6,6 km/h (2 Bft) NW 313 0 min 26 W/m 11,9 C 15,2 C 12,9 km/h (3 Bft)
15.07.2015 06:55 15,4 C 80 % 1017,6 hPa 0,0 l/m 7,1 km/h (2 Bft) N-NW 331 0 min 30 W/m 12,0 C 15,0 C 16,1 km/h (3 Bft)
15.07.2015 07:00 15,4 C 80 % 1017,6 hPa 0,0 l/m 6,8 km/h (2 Bft) NW 317 0 min 28 W/m 12,0 C 15,2 C 12,9 km/h (3 Bft)
15.07.2015 07:05 15,4 C 81 % 1017,6 hPa 0,0 l/m 5,7 km/h (2 Bft) NW 325 0 min 35 W/m 12,2 C 15,4 C 12,9 km/h (3 Bft)
15.07.2015 07:10 15,4 C 80 % 1017,7 hPa 0,0 l/m 6,1 km/h (2 Bft) NW 307 0 min 33 W/m 12,0 C 15,4 C 12,9 km/h (3 Bft)
15.07.2015 07:15 15,4 C 80 % 1017,7 hPa 0,0 l/m 5,1 km/h (1 Bft) NW 324 0 min 44 W/m 12,0 C 15,4 C 12,9 km/h (3 Bft)
15.07.2015 07:20 15,4 C 80 % 1017,7 hPa 0,0 l/m 4,9 km/h (1 Bft) W-NW 290 0 min 30 W/m 12,0 C 15,4 C 8,0 km/h (2 Bft)
15.07.2015 07:25 15,4 C 80 % 1017,7 hPa 0,0 l/m 2,8 km/h (1 Bft) W-NW 282 0 min 33 W/m 12,0 C 15,4 C 9,7 km/h (2 Bft)
15.07.2015 07:30 15,4 C 80 % 1017,8 hPa 0,0 l/m 3,4 km/h (1 Bft) W-NW 302 0 min 37 W/m 12,0 C 15,4 C 9,7 km/h (2 Bft)
15.07.2015 07:35 15,4 C 80 % 1017,8 hPa 0,0 l/m 3,7 km/h (1 Bft) NW 315 0 min 33 W/m 12,0 C 15,4 C 12,9 km/h (3 Bft)
15.07.2015 07:40 15,4 C 80 % 1017,8 hPa 0,0 l/m 3,4 km/h (1 Bft) NO 46 0 min 70 W/m 12,0 C 15,4 C 9,7 km/h (2 Bft)
15.07.2015 07:45 15,7 C 79 % 1017,9 hPa 0,0 l/m 5,1 km/h (1 Bft) W-NW 302 0 min 81 W/m 12,1 C 15,7 C 11,3 km/h (2 Bft)
15.07.2015 07:50 15,8 C 78 % 1017,9 hPa 0,0 l/m 3,9 km/h (1 Bft) NW 306 0 min 54 W/m 12,0 C 15,8 C 12,9 km/h (3 Bft)
15.07.2015 07:55 15,8 C 77 % 1017,9 hPa 0,0 l/m 4,0 km/h (1 Bft) N-NW 338 0 min 40 W/m 11,8 C 15,8 C 8,0 km/h (2 Bft)
15.07.2015 08:00 15,8 C 78 % 1017,9 hPa 0,0 l/m 3,8 km/h (1 Bft) W 261 0 min 70 W/m 12,0 C 15,8 C 9,7 km/h (2 Bft)
15.07.2015 08:05 15,8 C 79 % 1017,9 hPa 0,0 l/m 4,6 km/h (1 Bft) NW 318 0 min 67 W/m 12,2 C 15,8 C 11,3 km/h (2 Bft)
15.07.2015 08:10 15,9 C 78 % 1018,0 hPa 0,0 l/m 5,0 km/h (1 Bft) W-NW 291 0 min 83 W/m 12,1 C 15,9 C 12,9 km/h (3 Bft)
15.07.2015 08:15 16,1 C 77 % 1018,0 hPa 0,0 l/m 5,4 km/h (2 Bft) NW 320 0 min 160 W/m 12,1 C 16,1 C 12,9 km/h (3 Bft)
15.07.2015 08:20 16,2 C 77 % 1018,2 hPa 0,0 l/m 3,3 km/h (1 Bft) W 263 0 min 121 W/m 12,2 C 16,2 C 8,0 km/h (2 Bft)
15.07.2015 08:25 16,3 C 75 % 1018,2 hPa 0,0 l/m 7,5 km/h (2 Bft) W 278 0 min 111 W/m 11,9 C 15,7 C 16,1 km/h (3 Bft)
15.07.2015 08:30 16,3 C 76 % 1018,2 hPa 0,0 l/m 4,8 km/h (1 Bft) W 277 0 min 83 W/m 12,1 C 16,3 C 11,3 km/h (2 Bft)
15.07.2015 08:35 16,3 C 76 % 1018,2 hPa 0,0 l/m 5,0 km/h (1 Bft) N-NW 340 0 min 137 W/m 12,1 C 16,3 C 11,3 km/h (2 Bft)
15.07.2015 08:40 16,7 C 76 % 1018,3 hPa 0,0 l/m 2,8 km/h (1 Bft) NW 323 0 min 190 W/m 12,4 C 16,7 C 8,0 km/h (2 Bft)
15.07.2015 08:45 17,0 C 75 % 1018,3 hPa 0,0 l/m 4,0 km/h (1 Bft) NW 309 5 min 496 W/m 12,5 C 17,0 C 11,3 km/h (2 Bft)
15.07.2015 08:50 16,8 C 76 % 1018,3 hPa 0,0 l/m 4,5 km/h (1 Bft) N-NW 348 0 min 128 W/m 12,5 C 16,8 C 11,3 km/h (2 Bft)
15.07.2015 08:55 17,0 C 74 % 1018,3 hPa 0,0 l/m 4,8 km/h (1 Bft) NW 309 0 min 123 W/m 12,3 C 17,0 C 9,7 km/h (2 Bft)
15.07.2015 09:00 16,9 C 74 % 1018,3 hPa 0,0 l/m 3,9 km/h (1 Bft) W-NW 295 5 min 475 W/m 12,2 C 16,9 C 11,3 km/h (2 Bft)
15.07.2015 09:05 16,9 C 73 % 1018,4 hPa 0,0 l/m 5,1 km/h (1 Bft) W 274 0 min 264 W/m 12,0 C 16,9 C 9,7 km/h (2 Bft)
15.07.2015 09:10 16,9 C 74 % 1018,4 hPa 0,0 l/m 5,1 km/h (1 Bft) N 355 0 min 137 W/m 12,2 C 16,9 C 11,3 km/h (2 Bft)
15.07.2015 09:15 17,0 C 73 % 1018,4 hPa 0,0 l/m 4,0 km/h (1 Bft) W 281 0 min 130 W/m 12,1 C 17,0 C 9,7 km/h (2 Bft)
15.07.2015 09:20 16,9 C 74 % 1018,4 hPa 0,0 l/m 5,0 km/h (1 Bft) W-NW 293 5 min 485 W/m 12,2 C 16,9 C 9,7 km/h (2 Bft)
15.07.2015 09:25 17,3 C 72 % 1018,3 hPa 0,0 l/m 6,7 km/h (2 Bft) N-NW 342 0 min 158 W/m 12,2 C 17,2 C 12,9 km/h (3 Bft)
15.07.2015 09:30 17,4 C 71 % 1018,4 hPa 0,0 l/m 6,2 km/h (2 Bft) N-NW 341 0 min 158 W/m 12,1 C 17,4 C 11,3 km/h (2 Bft)
15.07.2015 09:35 17,5 C 71 % 1018,4 hPa 0,0 l/m 5,5 km/h (2 Bft) N 350 5 min 499 W/m 12,2 C 17,5 C 14,5 km/h (3 Bft)
15.07.2015 09:40 17,7 C 70 % 1018,4 hPa 0,0 l/m 5,6 km/h (2 Bft) W-SW 255 5 min 510 W/m 12,2 C 17,7 C 12,9 km/h (3 Bft)
15.07.2015 09:45 17,8 C 70 % 1018,4 hPa 0,0 l/m 3,6 km/h (1 Bft) N-NW 341 5 min 534 W/m 12,3 C 17,8 C 9,7 km/h (2 Bft)
15.07.2015 09:50 17,7 C 69 % 1018,4 hPa 0,0 l/m 5,5 km/h (2 Bft) N-NW 348 5 min 529 W/m 11,9 C 17,7 C 12,9 km/h (3 Bft)
15.07.2015 09:55 17,9 C 69 % 1018,4 hPa 0,0 l/m 4,0 km/h (1 Bft) N 355 5 min 533 W/m 12,1 C 17,9 C 11,3 km/h (2 Bft)
15.07.2015 10:00 17,8 C 68 % 1018,4 hPa 0,0 l/m 7,4 km/h (2 Bft) NW 306 5 min 555 W/m 11,8 C 17,3 C 14,5 km/h (3 Bft)
15.07.2015 10:05 17,9 C 67 % 1018,5 hPa 0,0 l/m 6,3 km/h (2 Bft) W-NW 300 5 min 580 W/m 11,7 C 17,9 C 16,1 km/h (3 Bft)
15.07.2015 10:10 17,7 C 70 % 1018,6 hPa 0,0 l/m 4,0 km/h (1 Bft) NW 323 5 min 573 W/m 12,2 C 17,7 C 9,7 km/h (2 Bft)
15.07.2015 10:15 17,9 C 69 % 1018,5 hPa 0,0 l/m 4,7 km/h (1 Bft) N 360 5 min 584 W/m 12,1 C 17,9 C 9,7 km/h (2 Bft)
15.07.2015 10:20 18,2 C 67 % 1018,6 hPa 0,0 l/m 4,4 km/h (1 Bft) W-NW 286 5 min 580 W/m 12,0 C 18,2 C 14,5 km/h (3 Bft)
15.07.2015 10:25 18,2 C 70 % 1018,6 hPa 0,0 l/m 4,9 km/h (1 Bft) N-NW 336 5 min 587 W/m 12,6 C 18,2 C 12,9 km/h (3 Bft)
15.07.2015 10:30 18,3 C 69 % 1018,6 hPa 0,0 l/m 3,9 km/h (1 Bft) N-NW 346 5 min 605 W/m 12,5 C 18,3 C 8,0 km/h (2 Bft)
15.07.2015 10:35 18,3 C 68 % 1018,6 hPa 0,0 l/m 5,4 km/h (2 Bft) N-NW 334 5 min 612 W/m 12,3 C 18,3 C 16,1 km/h (3 Bft)
15.07.2015 10:40 18,6 C 66 % 1018,6 hPa 0,0 l/m 5,4 km/h (2 Bft) N-NW 333 5 min 628 W/m 12,1 C 18,6 C 14,5 km/h (3 Bft)
15.07.2015 10:45 18,4 C 67 % 1018,6 hPa 0,0 l/m 6,3 km/h (2 Bft) N 355 5 min 633 W/m 12,2 C 18,4 C 9,7 km/h (2 Bft)
15.07.2015 10:50 18,4 C 69 % 1018,6 hPa 0,0 l/m 4,5 km/h (1 Bft) NW 322 5 min 638 W/m 12,6 C 18,4 C 8,0 km/h (2 Bft)
15.07.2015 10:55 18,4 C 65 % 1018,7 hPa 0,0 l/m 7,6 km/h (2 Bft) N 360 5 min 650 W/m 11,7 C 17,8 C 16,1 km/h (3 Bft)
15.07.2015 11:00 18,7 C 67 % 1018,8 hPa 0,0 l/m 4,8 km/h (1 Bft) NW 325 5 min 666 W/m 12,4 C 18,7 C 12,9 km/h (3 Bft)
15.07.2015 11:05 18,6 C 65 % 1018,7 hPa 0,0 l/m 4,6 km/h (1 Bft) W-NW 284 5 min 645 W/m 11,9 C 18,6 C 11,3 km/h (2 Bft)
15.07.2015 11:10 18,5 C 68 % 1018,8 hPa 0,0 l/m 4,6 km/h (1 Bft) N-NO 13 5 min 643 W/m 12,5 C 18,5 C 11,3 km/h (2 Bft)
15.07.2015 11:15 18,6 C 68 % 1018,8 hPa 0,0 l/m 6,7 km/h (2 Bft) N 355 5 min 654 W/m 12,6 C 18,5 C 12,9 km/h (3 Bft)
15.07.2015 11:20 18,9 C 66 % 1018,7 hPa 0,0 l/m 4,5 km/h (1 Bft) NW 306 5 min 671 W/m 12,4 C 18,9 C 12,9 km/h (3 Bft)
15.07.2015 11:25 18,6 C 68 % 1018,8 hPa 0,0 l/m 3,1 km/h (1 Bft) N 355 5 min 686 W/m 12,6 C 18,6 C 8,0 km/h (2 Bft)
15.07.2015 11:30 19,1 C 66 % 1018,8 hPa 0,0 l/m 3,0 km/h (1 Bft) N-NW 331 5 min 700 W/m 12,6 C 19,1 C 6,4 km/h (2 Bft)
15.07.2015 11:35 18,9 C 65 % 1018,9 hPa 0,0 l/m 4,6 km/h (1 Bft) N 11 5 min 701 W/m 12,2 C 18,9 C 12,9 km/h (3 Bft)
15.07.2015 11:40 18,7 C 65 % 1018,9 hPa 0,0 l/m 4,0 km/h (1 Bft) NW 319 5 min 708 W/m 12,0 C 18,7 C 9,7 km/h (2 Bft)
15.07.2015 11:45 18,7 C 67 % 1018,9 hPa 0,0 l/m 4,5 km/h (1 Bft) N 360 5 min 715 W/m 12,4 C 18,7 C 12,9 km/h (3 Bft)
15.07.2015 11:50 19,2 C 67 % 1018,9 hPa 0,0 l/m 5,8 km/h (2 Bft) W-SW 252 5 min 722 W/m 12,9 C 19,2 C 12,9 km/h (3 Bft)
15.07.2015 11:55 18,9 C 65 % 1018,8 hPa 0,0 l/m 5,0 km/h (1 Bft) NW 311 5 min 731 W/m 12,2 C 18,9 C 9,7 km/h (2 Bft)
15.07.2015 12:00 19,1 C 65 % 1018,8 hPa 0,0 l/m 4,9 km/h (1 Bft) N 349 5 min 737 W/m 12,4 C 19,1 C 12,9 km/h (3 Bft)
15.07.2015 12:05 19,6 C 66 % 1019,0 hPa 0,0 l/m 5,7 km/h (2 Bft) NW 324 5 min 738 W/m 13,1 C 19,6 C 12,9 km/h (3 Bft)
15.07.2015 12:10 19,8 C 64 % 1019,1 hPa 0,0 l/m 7,6 km/h (2 Bft) N 360 5 min 745 W/m 12,8 C 19,3 C 12,9 km/h (3 Bft)
15.07.2015 12:15 19,7 C 64 % 1019,0 hPa 0,0 l/m 5,3 km/h (1 Bft) N 5 5 min 756 W/m 12,7 C 19,7 C 12,9 km/h (3 Bft)
15.07.2015 12:20 19,9 C 65 % 1019,0 hPa 0,0 l/m 4,3 km/h (1 Bft) NW 315 5 min 756 W/m 13,1 C 19,9 C 8,0 km/h (2 Bft)
15.07.2015 12:25 20,1 C 61 % 1019,0 hPa 0,0 l/m 4,4 km/h (1 Bft) N-NO 17 5 min 754 W/m 12,3 C 20,1 C 9,7 km/h (2 Bft)
15.07.2015 12:30 19,8 C 63 % 1019,0 hPa 0,0 l/m 5,6 km/h (2 Bft) N-NW 336 5 min 740 W/m 12,5 C 19,8 C 11,3 km/h (2 Bft)
15.07.2015 12:35 19,5 C 66 % 1019,0 hPa 0,0 l/m 6,4 km/h (2 Bft) N 350 5 min 715 W/m 13,0 C 19,5 C 12,9 km/h (3 Bft)
15.07.2015 12:40 19,4 C 63 % 1019,0 hPa 0,0 l/m 6,3 km/h (2 Bft) W-NW 297 5 min 677 W/m 12,2 C 19,4 C 12,9 km/h (3 Bft)
15.07.2015 12:45 20,0 C 66 % 1018,9 hPa 0,0 l/m 4,8 km/h (1 Bft) NW 309 5 min 645 W/m 13,4 C 20,0 C 9,7 km/h (2 Bft)
15.07.2015 12:50 20,6 C 63 % 1018,9 hPa 0,0 l/m 6,3 km/h (2 Bft) NW 306 5 min 621 W/m 13,3 C 20,6 C 12,9 km/h (3 Bft)
15.07.2015 12:55 20,3 C 62 % 1018,8 hPa 0,0 l/m 7,7 km/h (2 Bft) W-NW 300 5 min 615 W/m 12,8 C 19,8 C 14,5 km/h (3 Bft)
15.07.2015 13:00 20,6 C 63 % 1018,8 hPa 0,0 l/m 6,4 km/h (2 Bft) N 355 5 min 629 W/m 13,3 C 20,6 C 12,9 km/h (3 Bft)
15.07.2015 13:05 20,1 C 62 % 1018,9 hPa 0,0 l/m 7,0 km/h (2 Bft) N-NO 13 5 min 666 W/m 12,6 C 19,9 C 12,9 km/h (3 Bft)
15.07.2015 13:10 20,2 C 61 % 1018,8 hPa 0,0 l/m 7,1 km/h (2 Bft) W-NW 302 5 min 729 W/m 12,4 C 19,9 C 14,5 km/h (3 Bft)
15.07.2015 13:15 20,1 C 63 % 1018,8 hPa 0,0 l/m 5,4 km/h (2 Bft) N-NW 341 5 min 701 W/m 12,8 C 20,1 C 12,9 km/h (3 Bft)
15.07.2015 13:20 20,1 C 62 % 1018,7 hPa 0,0 l/m 6,2 km/h (2 Bft) NW 318 5 min 796 W/m 12,6 C 20,1 C 12,9 km/h (3 Bft)
15.07.2015 13:25 19,9 C 64 % 1018,7 hPa 0,0 l/m 7,0 km/h (2 Bft) NW 317 5 min 812 W/m 12,9 C 19,7 C 14,5 km/h (3 Bft)
15.07.2015 13:30 20,4 C 62 % 1018,7 hPa 0,0 l/m 6,3 km/h (2 Bft) N-NW 327 5 min 780 W/m 12,9 C 20,4 C 12,9 km/h (3 Bft)
15.07.2015 13:35 20,4 C 60 % 1018,6 hPa 0,0 l/m 6,6 km/h (2 Bft) NO 38 5 min 860 W/m 12,4 C 20,3 C 14,5 km/h (3 Bft)
15.07.2015 13:40 20,7 C 60 % 1018,6 hPa 0,0 l/m 5,8 km/h (2 Bft) N-NO 12 5 min 879 W/m 12,7 C 20,7 C 12,9 km/h (3 Bft)
15.07.2015 13:45 20,7 C 62 % 1018,6 hPa 0,0 l/m 4,7 km/h (1 Bft) N-NW 327 5 min 677 W/m 13,2 C 20,7 C 14,5 km/h (3 Bft)
15.07.2015 13:50 20,2 C 62 % 1018,5 hPa 0,0 l/m 4,4 km/h (1 Bft) N 5 5 min 795 W/m 12,7 C 20,2 C 11,3 km/h (2 Bft)
15.07.2015 13:55 20,1 C 61 % 1018,5 hPa 0,0 l/m 6,3 km/h (2 Bft) N 349 5 min 795 W/m 12,3 C 20,1 C 12,9 km/h (3 Bft)
15.07.2015 14:00 20,3 C 64 % 1018,5 hPa 0,0 l/m 5,7 km/h (2 Bft) N-NO 20 5 min 884 W/m 13,3 C 20,3 C 12,9 km/h (3 Bft)
15.07.2015 14:05 20,7 C 63 % 1018,5 hPa 0,0 l/m 4,1 km/h (1 Bft) N 11 5 min 879 W/m 13,4 C 20,7 C 12,9 km/h (3 Bft)
15.07.2015 14:10 21,0 C 60 % 1018,4 hPa 0,0 l/m 5,6 km/h (2 Bft) N 9 5 min 802 W/m 12,9 C 21,0 C 14,5 km/h (3 Bft)
15.07.2015 14:15 20,9 C 58 % 1018,4 hPa 0,0 l/m 8,3 km/h (2 Bft) N 350 5 min 796 W/m 12,3 C 20,2 C 16,1 km/h (3 Bft)
15.07.2015 14:20 21,0 C 60 % 1018,3 hPa 0,0 l/m 4,2 km/h (1 Bft) N-NW 332 5 min 791 W/m 12,9 C 21,0 C 11,3 km/h (2 Bft)
15.07.2015 14:25 21,2 C 59 % 1018,3 hPa 0,0 l/m 4,4 km/h (1 Bft) NO 34 5 min 812 W/m 12,9 C 21,2 C 11,3 km/h (2 Bft)
15.07.2015 14:30 20,4 C 57 % 1018,3 hPa 0,0 l/m 5,3 km/h (1 Bft) W-NW 296 5 min 854 W/m 11,6 C 20,4 C 14,5 km/h (3 Bft)
15.07.2015 14:35 20,8 C 55 % 1018,3 hPa 0,0 l/m 4,9 km/h (1 Bft) W-NW 295 5 min 513 W/m 11,4 C 20,8 C 12,9 km/h (3 Bft)
15.07.2015 14:40 20,7 C 54 % 1018,3 hPa 0,0 l/m 4,3 km/h (1 Bft) O-NO 72 5 min 893 W/m 11,1 C 20,7 C 8,0 km/h (2 Bft)
15.07.2015 14:45 20,7 C 56 % 1018,3 hPa 0,0 l/m 4,4 km/h (1 Bft) W-NW 295 5 min 784 W/m 11,6 C 20,7 C 11,3 km/h (2 Bft)
15.07.2015 14:50 20,9 C 55 % 1018,3 hPa 0,0 l/m 5,2 km/h (1 Bft) N 5 5 min 513 W/m 11,5 C 20,9 C 14,5 km/h (3 Bft)
15.07.2015 14:55 20,9 C 51 % 1018,3 hPa 0,0 l/m 3,6 km/h (1 Bft) N 5 5 min 575 W/m 10,4 C 20,9 C 8,0 km/h (2 Bft)
15.07.2015 15:00 21,2 C 54 % 1018,4 hPa 0,0 l/m 6,9 km/h (2 Bft) NW 321 5 min 566 W/m 11,5 C 21,0 C 12,9 km/h (3 Bft)
15.07.2015 15:05 20,3 C 58 % 1018,4 hPa 0,0 l/m 3,5 km/h (1 Bft) N 355 0 min 390 W/m 11,8 C 20,3 C 6,4 km/h (2 Bft)
15.07.2015 15:10 21,2 C 54 % 1018,6 hPa 0,0 l/m 5,0 km/h (1 Bft) NW 323 5 min 701 W/m 11,5 C 21,2 C 9,7 km/h (2 Bft)
15.07.2015 15:15 20,8 C 53 % 1018,4 hPa 0,0 l/m 4,3 km/h (1 Bft) NO 34 5 min 557 W/m 10,9 C 20,8 C 9,7 km/h (2 Bft)
15.07.2015 15:20 20,8 C 57 % 1018,4 hPa 0,0 l/m 5,7 km/h (2 Bft) NW 325 5 min 575 W/m 12,0 C 20,8 C 9,7 km/h (2 Bft)
15.07.2015 15:25 21,2 C 54 % 1018,3 hPa 0,0 l/m 6,2 km/h (2 Bft) NO 49 5 min 461 W/m 11,5 C 21,2 C 14,5 km/h (3 Bft)
15.07.2015 15:30 20,7 C 60 % 1018,3 hPa 0,0 l/m 3,5 km/h (1 Bft) W-SW 250 0 min 399 W/m 12,7 C 20,7 C 11,3 km/h (2 Bft)
15.07.2015 15:35 20,2 C 57 % 1018,1 hPa 0,0 l/m 3,7 km/h (1 Bft) N-NO 18 5 min 457 W/m 11,4 C 20,2 C 8,0 km/h (2 Bft)
15.07.2015 15:40 20,7 C 54 % 1018,0 hPa 0,0 l/m 2,9 km/h (1 Bft) N 9 0 min 352 W/m 11,1 C 20,7 C 9,7 km/h (2 Bft)
15.07.2015 15:45 20,5 C 53 % 1018,0 hPa 0,0 l/m 3,6 km/h (1 Bft) NW 325 5 min 432 W/m 10,6 C 20,5 C 8,0 km/h (2 Bft)
15.07.2015 15:50 20,2 C 52 % 1017,9 hPa 0,0 l/m 2,5 km/h (1 Bft) O-NO 71 5 min 418 W/m 10,0 C 20,2 C 6,4 km/h (2 Bft)
15.07.2015 15:55 20,0 C 54 % 1017,9 hPa 0,0 l/m 3,9 km/h (1 Bft) N-NW 343 5 min 425 W/m 10,4 C 20,0 C 8,0 km/h (2 Bft)
15.07.2015 16:00 20,3 C 53 % 1017,8 hPa 0,0 l/m 3,0 km/h (1 Bft) O 100 5 min 397 W/m 10,4 C 20,3 C 6,4 km/h (2 Bft)
15.07.2015 16:05 19,9 C 51 % 1017,7 hPa 0,0 l/m 2,1 km/h (1 Bft) O 86 5 min 388 W/m 9,5 C 19,9 C 6,4 km/h (2 Bft)
15.07.2015 16:10 19,7 C 54 % 1017,8 hPa 0,0 l/m 3,3 km/h (1 Bft) N 10 0 min 330 W/m 10,1 C 19,7 C 11,3 km/h (2 Bft)
15.07.2015 16:15 19,3 C 57 % 1017,9 hPa 0,0 l/m 3,6 km/h (1 Bft) N 360 0 min 241 W/m 10,6 C 19,3 C 6,4 km/h (2 Bft)
15.07.2015 16:20 19,6 C 56 % 1017,8 hPa 0,0 l/m 3,5 km/h (1 Bft) N 9 0 min 269 W/m 10,6 C 19,6 C 6,4 km/h (2 Bft)
15.07.2015 16:25 19,4 C 54 % 1017,8 hPa 0,0 l/m 2,5 km/h (1 Bft) N 5 0 min 227 W/m 9,8 C 19,4 C 4,8 km/h (1 Bft)
15.07.2015 16:30 19,2 C 55 % 1017,8 hPa 0,0 l/m 3,3 km/h (1 Bft) N-NO 19 0 min 200 W/m 9,9 C 19,2 C 6,4 km/h (2 Bft)
15.07.2015 16:35 19,4 C 56 % 1017,7 hPa 0,0 l/m 3,6 km/h (1 Bft) N-NO 30 0 min 209 W/m 10,4 C 19,4 C 9,7 km/h (2 Bft)
15.07.2015 16:40 19,3 C 55 % 1017,7 hPa 0,0 l/m 2,8 km/h (1 Bft) NW 308 0 min 216 W/m 10,0 C 19,3 C 8,0 km/h (2 Bft)
15.07.2015 16:45 19,2 C 56 % 1017,7 hPa 0,0 l/m 2,6 km/h (1 Bft) NO 34 0 min 227 W/m 10,2 C 19,2 C 6,4 km/h (2 Bft)
15.07.2015 16:50 19,3 C 53 % 1017,6 hPa 0,0 l/m 2,5 km/h (1 Bft) N 5 0 min 253 W/m 9,5 C 19,3 C 8,0 km/h (2 Bft)
15.07.2015 16:55 19,3 C 54 % 1017,5 hPa 0,0 l/m 1,6 km/h (1 Bft) NO 52 0 min 206 W/m 9,8 C 19,3 C 6,4 km/h (2 Bft)
15.07.2015 17:00 19,2 C 57 % 1017,6 hPa 0,0 l/m 1,9 km/h (1 Bft) O-NO 69 0 min 190 W/m 10,5 C 19,2 C 8,0 km/h (2 Bft)
15.07.2015 17:05 19,0 C 57 % 1017,6 hPa 0,0 l/m 1,8 km/h (1 Bft) N-NO 17 0 min 134 W/m 10,3 C 19,0 C 6,4 km/h (2 Bft)
15.07.2015 17:10 19,0 C 56 % 1017,7 hPa 0,0 l/m 3,2 km/h (1 Bft) N-NO 19 0 min 130 W/m 10,0 C 19,0 C 6,4 km/h (2 Bft)
15.07.2015 17:15 19,1 C 58 % 1017,7 hPa 0,0 l/m 3,2 km/h (1 Bft) N 351 0 min 127 W/m 10,6 C 19,1 C 6,4 km/h (2 Bft)
15.07.2015 17:20 18,9 C 55 % 1017,7 hPa 0,0 l/m 4,0 km/h (1 Bft) N-NW 340 0 min 114 W/m 9,7 C 18,9 C 9,7 km/h (2 Bft)
15.07.2015 17:25 19,1 C 55 % 1017,7 hPa 0,0 l/m 3,6 km/h (1 Bft) N-NW 347 0 min 114 W/m 9,8 C 19,1 C 11,3 km/h (2 Bft)
15.07.2015 17:30 18,9 C 57 % 1017,6 hPa 0,0 l/m 2,5 km/h (1 Bft) W-SW 238 0 min 116 W/m 10,2 C 18,9 C 8,0 km/h (2 Bft)
15.07.2015 17:35 18,7 C 57 % 1017,5 hPa 0,0 l/m 3,4 km/h (1 Bft) NO 34 0 min 100 W/m 10,0 C 18,7 C 11,3 km/h (2 Bft)
15.07.2015 17:40 18,8 C 58 % 1017,4 hPa 0,0 l/m 2,1 km/h (1 Bft) N-NW 344 0 min 63 W/m 10,4 C 18,8 C 4,8 km/h (1 Bft)
15.07.2015 17:45 18,7 C 59 % 1017,4 hPa 0,0 l/m 2,8 km/h (1 Bft) N 5 0 min 86 W/m 10,5 C 18,7 C 6,4 km/h (2 Bft)
15.07.2015 17:50 18,6 C 58 % 1017,4 hPa 0,0 l/m 1,8 km/h (1 Bft) N-NO 20 0 min 76 W/m 10,2 C 18,6 C 3,2 km/h (1 Bft)
15.07.2015 17:55 18,4 C 62 % 1017,2 hPa 0,0 l/m 1,9 km/h (1 Bft) NO 41 0 min 84 W/m 11,0 C 18,4 C 4,8 km/h (1 Bft)
15.07.2015 18:00 18,4 C 63 % 1017,2 hPa 0,0 l/m 2,4 km/h (1 Bft) N-NO 24 0 min 74 W/m 11,2 C 18,4 C 6,4 km/h (2 Bft)
15.07.2015 18:05 18,3 C 62 % 1017,2 hPa 0,0 l/m 1,3 km/h (1 Bft) O-NO 58 0 min 46 W/m 10,9 C 18,3 C 4,8 km/h (1 Bft)
15.07.2015 18:10 18,3 C 63 % 1017,1 hPa 0,0 l/m 1,9 km/h (1 Bft) N 10 0 min 49 W/m 11,1 C 18,3 C 6,4 km/h (2 Bft)
15.07.2015 18:15 18,2 C 63 % 1017,0 hPa 0,0 l/m 2,0 km/h (1 Bft) N-NW 334 0 min 54 W/m 11,0 C 18,2 C 4,8 km/h (1 Bft)
15.07.2015 18:20 18,2 C 65 % 1017,0 hPa 0,0 l/m 1,7 km/h (1 Bft) N 5 0 min 49 W/m 11,5 C 18,2 C 4,8 km/h (1 Bft)
15.07.2015 18:25 18,3 C 67 % 1017,0 hPa 0,0 l/m 1,7 km/h (1 Bft) N 5 0 min 44 W/m 12,1 C 18,3 C 6,4 km/h (2 Bft)
15.07.2015 18:30 18,3 C 64 % 1016,8 hPa 0,0 l/m 2,5 km/h (1 Bft) N-NW 336 0 min 49 W/m 11,4 C 18,3 C 8,0 km/h (2 Bft)
15.07.2015 18:35 18,4 C 64 % 1016,8 hPa 0,0 l/m 1,9 km/h (1 Bft) N-NW 340 0 min 37 W/m 11,5 C 18,4 C 11,3 km/h (2 Bft)
15.07.2015 18:40 18,3 C 66 % 1016,7 hPa 0,0 l/m 2,1 km/h (1 Bft) N-NO 16 0 min 37 W/m 11,8 C 18,3 C 4,8 km/h (1 Bft)
15.07.2015 18:45 18,4 C 65 % 1016,8 hPa 0,0 l/m 1,9 km/h (1 Bft) NW 324 0 min 32 W/m 11,7 C 18,4 C 4,8 km/h (1 Bft)
15.07.2015 18:50 18,4 C 63 % 1016,8 hPa 0,0 l/m 1,3 km/h (1 Bft) NW 325 0 min 44 W/m 11,2 C 18,4 C 4,8 km/h (1 Bft)
15.07.2015 18:55 18,5 C 62 % 1016,9 hPa 0,0 l/m 2,2 km/h (1 Bft) N 355 0 min 26 W/m 11,1 C 18,5 C 9,7 km/h (2 Bft)
15.07.2015 19:00 18,2 C 68 % 1016,8 hPa 0,0 l/m 1,9 km/h (1 Bft) O 90 0 min 32 W/m 12,2 C 18,2 C 4,8 km/h (1 Bft)
15.07.2015 19:05 18,0 C 66 % 1016,8 hPa 0,0 l/m 3,0 km/h (1 Bft) NW 319 0 min 21 W/m 11,6 C 18,0 C 6,4 km/h (2 Bft)
15.07.2015 19:10 17,7 C 71 % 1016,8 hPa 0,0 l/m 2,7 km/h (1 Bft) NW 313 0 min 33 W/m 12,4 C 17,7 C 11,3 km/h (2 Bft)
15.07.2015 19:15 17,3 C 73 % 1016,8 hPa 0,0 l/m 2,0 km/h (1 Bft) W 265 0 min 37 W/m 12,4 C 17,3 C 6,4 km/h (2 Bft)
15.07.2015 19:20 16,6 C 82 % 1016,8 hPa 0,0 l/m 1,6 km/h (1 Bft) N-NO 16 0 min 32 W/m 13,5 C 16,6 C 4,8 km/h (1 Bft)
15.07.2015 19:25 16,2 C 83 % 1017,0 hPa 0,0 l/m 1,7 km/h (1 Bft) NW 318 0 min 16 W/m 13,3 C 16,2 C 4,8 km/h (1 Bft)
15.07.2015 19:30 16,0 C 84 % 1017,0 hPa 0,0 l/m 1,0 km/h (0 Bft) O 79 0 min 18 W/m 13,3 C 16,0 C 4,8 km/h (1 Bft)
15.07.2015 19:35 15,8 C 85 % 1017,0 hPa 0,2 l/m 1,2 km/h (1 Bft) SO 132 0 min 23 W/m 13,3 C 15,8 C 3,2 km/h (1 Bft)
15.07.2015 19:40 15,7 C 87 % 1017,0 hPa 0,0 l/m 0,8 km/h (0 Bft) W-SW 238 0 min 23 W/m 13,5 C 15,7 C 3,2 km/h (1 Bft)
15.07.2015 19:45 15,7 C 88 % 1016,9 hPa 0,0 l/m 1,0 km/h (0 Bft) NW 324 0 min 19 W/m 13,7 C 15,7 C 3,2 km/h (1 Bft)
15.07.2015 19:50 15,6 C 88 % 1017,0 hPa 0,0 l/m 0,8 km/h (0 Bft) N-NW 336 0 min 19 W/m 13,6 C 15,6 C 3,2 km/h (1 Bft)
15.07.2015 19:55 15,4 C 89 % 1016,9 hPa 0,0 l/m 0,8 km/h (0 Bft) N-NW 335 0 min 30 W/m 13,6 C 15,4 C 3,2 km/h (1 Bft)
15.07.2015 20:00 15,6 C 88 % 1017,0 hPa 0,0 l/m 0,9 km/h (0 Bft) W-SW 241 0 min 16 W/m 13,6 C 15,6 C 3,2 km/h (1 Bft)
15.07.2015 20:05 15,7 C 84 % 1017,0 hPa 0,2 l/m 1,0 km/h (0 Bft) O 95 0 min 7 W/m 13,0 C 15,7 C 3,2 km/h (1 Bft)
15.07.2015 20:10 15,3 C 88 % 1016,9 hPa 0,0 l/m 1,4 km/h (1 Bft) O-NO 75 0 min 7 W/m 13,3 C 15,3 C 4,8 km/h (1 Bft)
15.07.2015 20:15 15,3 C 89 % 1016,7 hPa 0,0 l/m 2,1 km/h (1 Bft) O-NO 76 0 min 9 W/m 13,5 C 15,3 C 4,8 km/h (1 Bft)
15.07.2015 20:20 15,4 C 86 % 1016,7 hPa 0,0 l/m 2,4 km/h (1 Bft) O-SO 109 0 min 5 W/m 13,1 C 15,4 C 6,4 km/h (2 Bft)
15.07.2015 20:25 15,6 C 85 % 1016,6 hPa 0,0 l/m 2,4 km/h (1 Bft) SO 132 0 min 11 W/m 13,1 C 15,6 C 9,7 km/h (2 Bft)
15.07.2015 20:30 15,7 C 83 % 1016,5 hPa 0,0 l/m 3,6 km/h (1 Bft) O 101 0 min 14 W/m 12,8 C 15,7 C 9,7 km/h (2 Bft)
15.07.2015 20:35 15,7 C 84 % 1016,6 hPa 0,0 l/m 1,8 km/h (1 Bft) SO 146 0 min 9 W/m 13,0 C 15,7 C 8,0 km/h (2 Bft)
15.07.2015 20:40 15,3 C 87 % 1016,5 hPa 0,2 l/m 2,1 km/h (1 Bft) O-NO 71 0 min 11 W/m 13,1 C 15,3 C 4,8 km/h (1 Bft)
15.07.2015 20:45 15,2 C 88 % 1016,5 hPa 0,0 l/m 1,5 km/h (1 Bft) N-NW 338 0 min 7 W/m 13,2 C 15,2 C 4,8 km/h (1 Bft)
15.07.2015 20:50 15,3 C 89 % 1016,4 hPa 0,0 l/m 1,7 km/h (1 Bft) O-NO 61 0 min 5 W/m 13,5 C 15,3 C 4,8 km/h (1 Bft)
15.07.2015 20:55 15,6 C 87 % 1016,4 hPa 0,0 l/m 1,6 km/h (1 Bft) N 5 0 min 0 W/m 13,4 C 15,6 C 4,8 km/h (1 Bft)
15.07.2015 21:00 15,6 C 88 % 1016,3 hPa 0,0 l/m 2,5 km/h (1 Bft) NO 40 0 min 5 W/m 13,6 C 15,6 C 8,0 km/h (2 Bft)
15.07.2015 21:05 15,4 C 90 % 1016,2 hPa 0,0 l/m 2,3 km/h (1 Bft) O 79 0 min 5 W/m 13,8 C 15,4 C 11,3 km/h (2 Bft)
15.07.2015 21:10 15,6 C 88 % 1016,1 hPa 0,0 l/m 3,9 km/h (1 Bft) NO 47 0 min 5 W/m 13,6 C 15,6 C 9,7 km/h (2 Bft)
15.07.2015 21:15 15,7 C 83 % 1016,1 hPa 0,0 l/m 3,6 km/h (1 Bft) O-SO 115 0 min 0 W/m 12,8 C 15,7 C 16,1 km/h (3 Bft)
15.07.2015 21:20 15,9 C 83 % 1016,1 hPa 0,0 l/m 3,4 km/h (1 Bft) NO 56 0 min 0 W/m 13,0 C 15,9 C 9,7 km/h (2 Bft)
15.07.2015 21:25 15,8 C 85 % 1016,2 hPa 0,0 l/m 3,7 km/h (1 Bft) W 281 0 min 0 W/m 13,3 C 15,8 C 12,9 km/h (3 Bft)
15.07.2015 21:30 15,8 C 86 % 1016,3 hPa 0,0 l/m 2,1 km/h (1 Bft) O-SO 111 0 min 0 W/m 13,5 C 15,8 C 8,0 km/h (2 Bft)
15.07.2015 21:35 15,7 C 86 % 1016,4 hPa 0,0 l/m 2,2 km/h (1 Bft) O-SO 115 0 min 0 W/m 13,4 C 15,7 C 4,8 km/h (1 Bft)
15.07.2015 21:40 15,7 C 86 % 1016,4 hPa 0,0 l/m 3,2 km/h (1 Bft) O-NO 69 0 min 0 W/m 13,4 C 15,7 C 6,4 km/h (2 Bft)
15.07.2015 21:45 15,8 C 87 % 1016,4 hPa 0,0 l/m 2,9 km/h (1 Bft) O 81 0 min 0 W/m 13,6 C 15,8 C 9,7 km/h (2 Bft)
15.07.2015 21:50 15,8 C 87 % 1016,4 hPa 0,0 l/m 2,3 km/h (1 Bft) NO 46 0 min 0 W/m 13,6 C 15,8 C 9,7 km/h (2 Bft)
15.07.2015 21:55 15,7 C 89 % 1016,4 hPa 0,0 l/m 2,2 km/h (1 Bft) N-NO 19 0 min 0 W/m 13,9 C 15,7 C 6,4 km/h (2 Bft)
15.07.2015 22:00 15,8 C 87 % 1016,4 hPa 0,0 l/m 1,8 km/h (1 Bft) O 96 0 min 0 W/m 13,6 C 15,8 C 4,8 km/h (1 Bft)
15.07.2015 22:05 15,8 C 89 % 1016,5 hPa 0,0 l/m 2,4 km/h (1 Bft) O 94 0 min 0 W/m 14,0 C 15,8 C 6,4 km/h (2 Bft)
15.07.2015 22:10 15,7 C 90 % 1016,4 hPa 0,0 l/m 2,7 km/h (1 Bft) NO 48 0 min 0 W/m 14,1 C 15,7 C 8,0 km/h (2 Bft)
15.07.2015 22:15 15,7 C 90 % 1016,4 hPa 0,0 l/m 2,5 km/h (1 Bft) O-NO 76 0 min 0 W/m 14,1 C 15,7 C 4,8 km/h (1 Bft)
15.07.2015 22:20 15,9 C 89 % 1016,2 hPa 0,0 l/m 3,5 km/h (1 Bft) O-SO 121 0 min 0 W/m 14,1 C 15,9 C 11,3 km/h (2 Bft)
15.07.2015 22:25 15,9 C 88 % 1016,2 hPa 0,0 l/m 3,6 km/h (1 Bft) S-SO 160 0 min 0 W/m 13,9 C 15,9 C 11,3 km/h (2 Bft)
15.07.2015 22:30 16,0 C 87 % 1016,3 hPa 0,0 l/m 3,7 km/h (1 Bft) O-NO 73 0 min 0 W/m 13,8 C 16,0 C 12,9 km/h (3 Bft)
15.07.2015 22:35 15,9 C 87 % 1016,3 hPa 0,0 l/m 3,6 km/h (1 Bft) W-NW 283 0 min 0 W/m 13,7 C 15,9 C 11,3 km/h (2 Bft)
15.07.2015 22:40 15,8 C 87 % 1016,2 hPa 0,0 l/m 3,5 km/h (1 Bft) W-SW 238 0 min 0 W/m 13,6 C 15,8 C 8,0 km/h (2 Bft)
15.07.2015 22:45 15,6 C 85 % 1016,2 hPa 0,0 l/m 4,3 km/h (1 Bft) SW 221 0 min 0 W/m 13,1 C 15,6 C 11,3 km/h (2 Bft)
15.07.2015 22:50 15,4 C 84 % 1016,2 hPa 0,0 l/m 3,4 km/h (1 Bft) W-NW 296 0 min 0 W/m 12,7 C 15,4 C 9,7 km/h (2 Bft)
15.07.2015 22:55 15,3 C 85 % 1016,2 hPa 0,0 l/m 3,1 km/h (1 Bft) O-NO 57 0 min 0 W/m 12,8 C 15,3 C 6,4 km/h (2 Bft)
15.07.2015 23:00 15,3 C 85 % 1016,3 hPa 0,0 l/m 3,5 km/h (1 Bft) O 82 0 min 0 W/m 12,8 C 15,3 C 8,0 km/h (2 Bft)
15.07.2015 23:05 15,3 C 83 % 1016,4 hPa 0,0 l/m 3,4 km/h (1 Bft) NO 45 0 min 0 W/m 12,4 C 15,3 C 9,7 km/h (2 Bft)
15.07.2015 23:10 15,3 C 84 % 1016,4 hPa 0,0 l/m 4,8 km/h (1 Bft) N-NO 15 0 min 0 W/m 12,6 C 15,3 C 12,9 km/h (3 Bft)
15.07.2015 23:15 15,1 C 85 % 1016,5 hPa 0,0 l/m 3,6 km/h (1 Bft) N 360 0 min 0 W/m 12,6 C 15,1 C 9,7 km/h (2 Bft)
15.07.2015 23:20 14,8 C 89 % 1016,5 hPa 0,4 l/m 4,1 km/h (1 Bft) NW 324 0 min 0 W/m 13,0 C 14,8 C 11,3 km/h (2 Bft)
15.07.2015 23:25 14,6 C 90 % 1016,6 hPa 0,2 l/m 4,3 km/h (1 Bft) N-NO 24 0 min 0 W/m 13,0 C 14,6 C 12,9 km/h (3 Bft)
15.07.2015 23:30 14,3 C 92 % 1016,7 hPa 0,4 l/m 3,7 km/h (1 Bft) NW 317 0 min 0 W/m 13,0 C 14,3 C 11,3 km/h (2 Bft)
15.07.2015 23:35 14,1 C 92 % 1016,7 hPa 0,2 l/m 4,7 km/h (1 Bft) N 355 0 min 0 W/m 12,8 C 14,1 C 12,9 km/h (3 Bft)
15.07.2015 23:40 13,8 C 93 % 1016,7 hPa 0,0 l/m 4,2 km/h (1 Bft) W-NW 295 0 min 0 W/m 12,7 C 13,8 C 14,5 km/h (3 Bft)
15.07.2015 23:45 13,7 C 92 % 1016,8 hPa 0,0 l/m 4,6 km/h (1 Bft) NW 325 0 min 0 W/m 12,4 C 13,7 C 16,1 km/h (3 Bft)
15.07.2015 23:50 13,5 C 93 % 1016,8 hPa 0,2 l/m 5,4 km/h (2 Bft) S 175 0 min 0 W/m 12,4 C 13,5 C 12,9 km/h (3 Bft)
15.07.2015 23:55 13,4 C 93 % 1016,8 hPa 0,0 l/m 5,1 km/h (1 Bft) W 263 0 min 0 W/m 12,3 C 13,4 C 14,5 km/h (3 Bft)
_ Min-Zeit 23:55 14:55 21:10 - 19:40 - - - - 16:05 04:25 17:50
Minimum _ 13,4 C 51 % 1016,1 hPa - 0,8 km/h (0 Bft) - - - - 9,5 C 13,1 C 3,2 km/h (1 Bft)
_ Max-Zeit 14:50 23:40 12:10 23:20 04:25 - - 06:15 14:40 22:20 14:25 04:15
Maximum _ 21,3 C 93 % 1019,1 hPa 0,4 l/m 12,5 km/h
NW (2 Bft)
- - 5 min 893 W/m 14,1 C 21,2 C 27,4 km/h
W-NW (5 Bft)
Durchschnitt _ 17,3 C 74 % 1017,5 hPa #2,0 l/m 4,9 km/h (1 Bft) NW - #6:45 h 320 W/m 12,4 C 17,1 C 11,7 km/h (2 Bft)
copyright by Holger Just